TimeCDT,TemperatureF,Dew PointF,Humidity,Sea Level PressureIn,VisibilityMPH,Wind Direction,Wind SpeedMPH,Gust SpeedMPH,PrecipitationIn,Events,Conditions,WindDirDegrees,DateUTC
12:15 AM,60.8,57.2,88,30.12,10.0,Calm,Calm,-,N/A,,Overcast,0,2012-10-11 05:15:00
12:35 AM,60.8,57.2,88,30.11,10.0,Calm,Calm,-,N/A,,Overcast,0,2012-10-11 05:35:00
12:55 AM,60.8,57.2,88,30.10,10.0,Calm,Calm,-,N/A,,Overcast,0,2012-10-11 05:55:00
1:15 AM,60.8,59.0,94,30.10,10.0,Calm,Calm,-,N/A,,Overcast,0,2012-10-11 06:15:00
1:35 AM,60.8,59.0,94,30.10,10.0,Calm,Calm,-,N/A,,Overcast,0,2012-10-11 06:35:00
1:55 AM,60.8,59.0,94,30.10,10.0,Calm,Calm,-,N/A,,Overcast,0,2012-10-11 06:55:00
2:15 AM,62.6,59.0,88,30.09,10.0,Calm,Calm,-,N/A,,Overcast,0,2012-10-11 07:15:00
2:55 AM,62.6,59.0,88,30.09,10.0,Calm,Calm,-,N/A,,Overcast,0,2012-10-11 07:55:00
3:15 AM,62.6,59.0,88,30.09,10.0,Calm,Calm,-,N/A,,Overcast,0,2012-10-11 08:15:00
3:35 AM,62.6,60.8,94,30.09,10.0,Calm,Calm,-,N/A,,Overcast,0,2012-10-11 08:35:00
3:55 AM,62.6,60.8,94,30.08,7.0,Calm,Calm,-,N/A,,Overcast,0,2012-10-11 08:55:00
4:15 AM,62.6,60.8,94,30.08,7.0,ESE,3.5,-,N/A,,Overcast,110,2012-10-11 09:15:00
4:35 AM,62.6,60.8,94,30.09,7.0,Calm,Calm,-,N/A,,Overcast,0,2012-10-11 09:35:00
4:55 AM,62.6,60.8,94,30.09,7.0,ESE,3.5,-,N/A,,Overcast,120,2012-10-11 09:55:00
5:15 AM,62.6,60.8,94,30.10,5.0,Calm,Calm,-,N/A,,Overcast,0,2012-10-11 10:15:00
5:35 AM,62.6,60.8,94,30.10,5.0,Calm,Calm,-,N/A,,Overcast,0,2012-10-11 10:35:00
5:55 AM,62.6,60.8,94,30.10,5.0,ESE,4.6,-,N/A,,Overcast,110,2012-10-11 10:55:00
6:15 AM,62.6,60.8,94,30.11,4.0,ESE,3.5,-,N/A,,Overcast,120,2012-10-11 11:15:00
6:35 AM,62.6,62.6,100,30.12,1.2,ESE,3.5,-,N/A,,Overcast,120,2012-10-11 11:35:00
6:55 AM,62.6,62.6,100,30.12,2.5,ESE,3.5,-,N/A,,Overcast,110,2012-10-11 11:55:00
7:15 AM,62.6,62.6,100,30.12,3.0,Calm,Calm,-,N/A,,Overcast,0,2012-10-11 12:15:00
7:35 AM,62.6,62.6,100,30.12,1.8,Calm,Calm,-,N/A,,Overcast,0,2012-10-11 12:35:00
7:55 AM,62.6,62.6,100,30.12,2.5,Calm,Calm,-,N/A,,Overcast,0,2012-10-11 12:55:00
8:15 AM,62.6,62.6,100,30.13,4.0,Calm,Calm,-,N/A,,Overcast,0,2012-10-11 13:15:00
8:35 AM,64.4,62.6,94,30.13,5.0,ESE,3.5,-,N/A,,Overcast,110,2012-10-11 13:35:00
8:55 AM,64.4,62.6,94,30.13,5.0,Calm,Calm,-,N/A,,Overcast,0,2012-10-11 13:55:00
9:15 AM,66.2,62.6,88,30.14,5.0,ESE,3.5,-,N/A,,Overcast,120,2012-10-11 14:15:00
9:35 AM,68.0,64.4,88,30.14,5.0,ESE,6.9,-,N/A,,Overcast,120,2012-10-11 14:35:00
9:55 AM,68.0,64.4,88,30.15,5.0,SE,9.2,-,N/A,,Overcast,130,2012-10-11 14:55:00
10:15 AM,68.0,64.4,88,30.15,7.0,SE,8.1,-,N/A,,Overcast,130,2012-10-11 15:15:00
10:35 AM,68.0,64.4,88,30.15,5.0,SE,4.6,-,N/A,,Overcast,130,2012-10-11 15:35:00
10:55 AM,69.8,66.2,88,30.16,7.0,SSE,5.8,-,N/A,,Overcast,160,2012-10-11 15:55:00
11:15 AM,69.8,66.2,88,30.16,7.0,SE,9.2,-,N/A,,Overcast,140,2012-10-11 16:15:00
11:35 AM,71.6,64.4,78,30.16,10.0,SSE,8.1,-,N/A,,Overcast,160,2012-10-11 16:35:00
11:55 AM,71.6,64.4,78,30.16,10.0,South,9.2,-,N/A,,Overcast,170,2012-10-11 16:55:00
12:15 PM,73.4,64.4,73,30.15,10.0,South,6.9,-,N/A,,Overcast,180,2012-10-11 17:15:00
1:15 PM,77.0,64.4,65,30.13,10.0,SE,6.9,-,N/A,,Overcast,140,2012-10-11 18:15:00
1:35 PM,77.0,64.4,65,30.12,10.0,SSE,9.2,-,N/A,,Overcast,160,2012-10-11 18:35:00
1:55 PM,77.0,64.4,65,30.12,10.0,SSE,9.2,-,N/A,,Overcast,150,2012-10-11 18:55:00
2:15 PM,77.0,64.4,65,30.10,10.0,South,6.9,-,N/A,,Overcast,170,2012-10-11 19:15:00
2:35 PM,77.0,66.2,69,30.10,10.0,SE,5.8,-,N/A,,Overcast,130,2012-10-11 19:35:00
2:55 PM,77.0,66.2,69,30.09,10.0,SSE,6.9,-,N/A,,Overcast,160,2012-10-11 19:55:00
3:15 PM,77.0,66.2,69,30.09,10.0,SSE,6.9,-,N/A,,Overcast,160,2012-10-11 20:15:00
3:35 PM,77.0,66.2,69,30.08,10.0,SE,8.1,-,N/A,,Overcast,140,2012-10-11 20:35:00
3:55 PM,78.8,66.2,65,30.07,10.0,ESE,5.8,-,N/A,,Mostly Cloudy,110,2012-10-11 20:55:00
4:15 PM,80.6,66.2,61,30.06,10.0,ESE,8.1,-,N/A,,Clear,120,2012-10-11 21:15:00
4:35 PM,80.6,66.2,61,30.06,10.0,ESE,6.9,-,N/A,,Clear,120,2012-10-11 21:35:00
5:15 PM,80.6,66.2,61,30.05,10.0,SE,6.9,-,N/A,,Clear,130,2012-10-11 22:15:00
5:35 PM,80.6,66.2,61,30.05,10.0,ESE,4.6,-,N/A,,Clear,120,2012-10-11 22:35:00
5:55 PM,80.6,66.2,61,30.05,10.0,SSE,4.6,-,N/A,,Clear,150,2012-10-11 22:55:00
6:15 PM,80.6,66.2,61,30.05,10.0,SE,8.1,-,N/A,,Scattered Clouds,140,2012-10-11 23:15:00
6:35 PM,78.8,68.0,69,30.05,10.0,Calm,Calm,-,N/A,,Clear,0,2012-10-11 23:35:00
6:55 PM,77.0,68.0,74,30.05,10.0,ESE,3.5,-,N/A,,Clear,110,2012-10-11 23:55:00
7:15 PM,75.2,68.0,78,30.05,10.0,East,3.5,-,N/A,,Clear,90,2012-10-12 00:15:00
7:35 PM,73.4,68.0,83,30.05,10.0,Calm,Calm,-,N/A,,Clear,0,2012-10-12 00:35:00
7:55 PM,73.4,68.0,83,30.05,10.0,East,3.5,-,N/A,,Scattered Clouds,100,2012-10-12 00:55:00
8:15 PM,73.4,68.0,83,30.06,10.0,East,3.5,-,N/A,,Scattered Clouds,100,2012-10-12 01:15:00
8:35 PM,73.4,68.0,83,30.07,10.0,East,4.6,-,N/A,,Scattered Clouds,100,2012-10-12 01:35:00
8:55 PM,73.4,68.0,83,30.07,10.0,East,4.6,-,N/A,,Scattered Clouds,100,2012-10-12 01:55:00
9:15 PM,73.4,68.0,83,30.07,10.0,East,5.8,-,N/A,,Mostly Cloudy,90,2012-10-12 02:15:00
9:55 PM,73.4,68.0,83,30.08,10.0,ESE,9.2,-,N/A,,Scattered Clouds,110,2012-10-12 02:55:00
10:35 PM,73.4,68.0,83,30.10,10.0,ESE,8.1,-,N/A,,Clear,120,2012-10-12 03:35:00
10:55 PM,73.4,68.0,83,30.10,10.0,SE,10.4,16.1,N/A,,Clear,130,2012-10-12 03:55:00
11:15 PM,73.4,68.0,83,30.09,10.0,ESE,9.2,-,N/A,,Clear,120,2012-10-12 04:15:00
11:35 PM,71.6,66.2,83,30.10,10.0,SE,10.4,16.1,N/A,,Clear,130,2012-10-12 04:35:00
11:55 PM,71.6,66.2,83,30.10,10.0,SE,9.2,19.6,N/A,,Clear,130,2012-10-12 04:55:00